This is the latest recevied weather packets stored in our database for station/object N9BID. If no packets are shown the sender has not sent any weather packets the latest 10 day(s).
| Time | Temp. | Humidity | Pressure | Rain* | Wind** | Luminosity | Snow |
|---|---|---|---|---|---|---|---|
| 1777897662 | 11.67° C | 62% | 988.3 hPa | 0 mm | - | 81 W/m² | - |
| 1777897358 | 11.67° C | 61% | 988.6 hPa | 0 mm | - | 84 W/m² | - |
| 1777897054 | 11.11° C | 62% | 988.5 hPa | 0 mm | - | 73 W/m² | - |
| 1777896751 | 11.11° C | 63% | 988.8 hPa | 0 mm | - | 74 W/m² | - |
| 1777896448 | 11.11° C | 63% | 989 hPa | 0 mm | - | 73 W/m² | - |
| 1777896145 | 11.11° C | 63% | 989.1 hPa | 0 mm | - | 69 W/m² | - |
| 1777895843 | 10.56° C | 63% | 989.2 hPa | 0 mm | - | 59 W/m² | - |
| 1777895540 | 10.56° C | 62% | 989.1 hPa | 0 mm | - | 51 W/m² | - |
| 1777895238 | 10.56° C | 63% | 988.9 hPa | 0 mm | - | 45 W/m² | - |
| 1777894936 | 10.56° C | 63% | 989 hPa | 0 mm | - | 41 W/m² | - |
| 1777894633 | 10.56° C | 63% | 989 hPa | 0 mm | - | 34 W/m² | - |
| 1777894329 | 10.56° C | 63% | 989.1 hPa | 0 mm | - | 29 W/m² | - |
| 1777894027 | 10.56° C | 63% | 989.3 hPa | 0 mm | - | 26 W/m² | - |
| 1777893723 | 10.56° C | 63% | 988.9 hPa | 0 mm | - | 25 W/m² | - |
| 1777893419 | 10.56° C | 63% | 989.2 hPa | 0 mm | - | 21 W/m² | - |
| 1777893116 | 10.56° C | 63% | 989.2 hPa | 0 mm | - | 19 W/m² | - |
| 1777892813 | 10.56° C | 61% | 989.2 hPa | 0 mm | - | 12 W/m² | - |
| 1777892509 | 10.56° C | 62% | 989.1 hPa | 0 mm | - | 7 W/m² | - |
| 1777892204 | 10.56° C | 62% | 989.2 hPa | 0 mm | - | 3 W/m² | - |
| 1777891902 | 10.56° C | 60% | 989.5 hPa | 0 mm | - | 1 W/m² | - |
| 1777891599 | 11.11° C | 60% | 989.7 hPa | 0 mm | - | 0 W/m² | - |
| 1777891296 | 11.11° C | 58% | 989.5 hPa | 0 mm | - | 0 W/m² | - |
| 1777890995 | 11.67° C | 57% | 989.4 hPa | 0 mm | - | 0 W/m² | - |
| 1777890690 | 10.56° C | 59% | 989.5 hPa | 0 mm | - | 0 W/m² | - |
| 1777890386 | 10.56° C | 60% | 989.7 hPa | 0 mm | - | 0 W/m² | - |
* Rain latest hour (hover to see other rain measurements)
** Current wind speed in m/s (hover to see current wind gust speed)